Tracking 22094 objects as of 17-Jan-2021
HD Live streaming from Space Station
objects crossing your sky now

GRIFEX

Track GRIFEX now!
10-day predictions
GRIFEX is classified as:


NORAD ID: 40379
Int'l Code: 2015-003D
Perigee: 431.5 km
Apogee: 611.0 km
Inclination: 99.1 °
Period: 94.9 minutes
Semi major axis: 6892 km
RCS: Unknown
Launch date: January 31, 2015
Source: United States (US)
Launch site: AIR FORCE WESTERN TEST RANGE (AFWTR)

Uplink (MHz):
Downlink (MHz): 437.480
Beacon (MHz):
Mode: 9k6/19k2bps GMSK
Call sign: KD8SPS
Status: Active

aabbcc
Your satellite tracking list
Your tracking list is empty




NASA's NSSDC Master Catalog

Two Line Element Set (TLE):
1 40379U 15003D   21017.22421277  .00001181  00000-0  52378-4 0  9990
2 40379  99.0846 117.8096 0130234 349.0679  10.7725 15.17258475329252
Source of the keplerian elements: Caltech